Weather History for KI69 - December, 2013

Change the Weather History Date:

Thursday, December 26, 2013

  Actual Average (KLUK) Record (KLUK)
Temperature  
Mean Temperature 36 °F -  
Max Temperature 41 °F 37 °F 63 °F (1982)
Min Temperature 32 °F 22 °F 2 °F (1983)
Degree Days  
Heating Degree Days 28    
Moisture  
Dew Point 23 °F    
Average Humidity 61    
Maximum Humidity 81    
Minimum Humidity 42    
Precipitation  
Precipitation 0.00 in - - ()
Sea Level Pressure  
Sea Level Pressure 30.29 in    
Wind  
Wind Speed 9 mph (WSW)    
Max Wind Speed 16 mph    
Max Gust Speed 25 mph    
Visibility 10 miles    
Events      
Averages and records for this station are not official NWS values.
T = Trace of Precipitation, MM = Missing Value Source: NWS Daily Summary

Daily Weather History Graph

Daily Weather History Graph

Search for Another Location

Airport or City:

Trip Planner

Search our weather history database for the weather conditions in past years. The results will help you decide how hot, cold, wet, or windy it might be!

Date:

Astronomy

Dec. 26, 2013 Rise Set
Actual Time 7:54 AM EST 5:20 PM EST
Civil Twilight 7:24 AM EST 5:50 PM EST
Nautical Twilight 6:50 AM EST 6:24 PM EST
Astronomical Twilight 6:18 AM EST 6:56 PM EST
Moon 1:24 AM EST (12/26) 12:53 PM EST (12/26)
Length of Visible Light 10h 26m
Length of Day
9h 26m
Last Quarter, 38% of the Moon is Illuminated
Dec 26
Last Quarter
Jan 1
New
Jan 7
First Quarter
Jan 15
Full
Jan 24
Last Quarter

Hourly Weather History & Observations

Time (EST) Temp. Windchill Dew Point Humidity Pressure Visibility Wind Dir Wind Speed Gust Speed Precip Events Conditions
12:15 AM 35.6 °F 32.8 °F 19.4 °F 52% 30.19 in 10.0 mi SW 3.5 mph - N/A   Overcast
12:35 AM 35.6 °F 31.7 °F 21.2 °F 56% 30.18 in 10.0 mi West 4.6 mph - N/A   Overcast
12:55 AM 35.6 °F 30.7 °F 21.2 °F 56% 30.18 in 10.0 mi West 5.8 mph - N/A   Overcast
1:15 AM 35.6 °F 28.6 °F 21.2 °F 56% 30.18 in 10.0 mi WSW 9.2 mph - N/A   Overcast
1:35 AM 35.6 °F 27.5 °F 21.2 °F 56% 30.18 in 10.0 mi West 11.5 mph - N/A   Overcast
1:55 AM 35.6 °F 28.0 °F 24.8 °F 65% 30.18 in 10.0 mi West 10.4 mph - N/A   Overcast
2:15 AM 35.6 °F 26.6 °F 26.6 °F 70% 30.18 in 10.0 mi West 13.8 mph 21.9 mph N/A   Overcast
2:35 AM 35.6 °F 25.9 °F 26.6 °F 70% 30.19 in 10.0 mi West 16.1 mph 23.0 mph N/A   Overcast
2:55 AM 33.8 °F 24.3 °F 26.6 °F 75% 30.19 in 10.0 mi West 13.8 mph 19.6 mph N/A   Overcast
3:15 AM 33.8 °F 24.3 °F 26.6 °F 75% 30.19 in 10.0 mi West 13.8 mph 20.7 mph N/A   Overcast
3:35 AM 33.8 °F 23.5 °F 28.4 °F 81% 30.19 in 10.0 mi West 16.1 mph 21.9 mph N/A   Overcast
3:56 AM 33.8 °F 25.3 °F 28.4 °F 81% 30.20 in 10.0 mi West 11.5 mph 21.9 mph N/A   Overcast
4:15 AM 33.8 °F 24.8 °F 28.4 °F 81% 30.20 in 10.0 mi West 12.7 mph 19.6 mph N/A   Overcast
4:35 AM 33.8 °F 24.3 °F 28.4 °F 81% 30.20 in 10.0 mi West 13.8 mph 20.7 mph N/A   Overcast
4:56 AM 33.8 °F 24.3 °F 28.4 °F 81% 30.21 in 10.0 mi West 13.8 mph 20.7 mph N/A   Overcast
5:15 AM 33.8 °F 24.3 °F 28.4 °F 81% 30.21 in 10.0 mi West 13.8 mph 18.4 mph N/A   Overcast
5:35 AM 33.8 °F 24.3 °F 28.4 °F 81% 30.23 in 10.0 mi West 13.8 mph 18.4 mph N/A   Overcast
5:56 AM 33.8 °F 24.8 °F 28.4 °F 81% 30.23 in 10.0 mi West 12.7 mph - N/A   Overcast
6:15 AM 33.8 °F 24.3 °F 28.4 °F 81% 30.24 in 10.0 mi West 13.8 mph - N/A   Overcast
6:35 AM 33.8 °F 26.4 °F 28.4 °F 81% 30.25 in 10.0 mi West 9.2 mph 18.4 mph N/A   Overcast
6:56 AM 33.8 °F 24.8 °F 26.6 °F 75% 30.25 in 10.0 mi West 12.7 mph 19.6 mph N/A   Overcast
7:15 AM 33.8 °F 24.3 °F 23.0 °F 65% 30.26 in 10.0 mi West 13.8 mph - N/A   Scattered Clouds
7:35 AM 32.0 °F 24.2 °F 23.0 °F 69% 30.27 in 10.0 mi West 9.2 mph - N/A   Clear
7:56 AM 32.0 °F 24.2 °F 23.0 °F 69% 30.28 in 10.0 mi West 9.2 mph - N/A   Clear
8:15 AM 32.0 °F 25.6 °F 23.0 °F 69% 30.29 in 10.0 mi West 6.9 mph - N/A   Scattered Clouds
8:35 AM 32.0 °F 21.6 °F 23.0 °F 69% 30.30 in 10.0 mi West 15.0 mph - N/A   Mostly Cloudy
8:56 AM 33.8 °F 23.5 °F 23.0 °F 65% 30.31 in 10.0 mi West 16.1 mph 25.3 mph N/A   Mostly Cloudy
9:15 AM 33.8 °F 25.8 °F 23.0 °F 65% 30.31 in 10.0 mi WNW 10.4 mph - N/A   Scattered Clouds
9:35 AM 33.8 °F 25.3 °F 23.0 °F 65% 30.32 in 10.0 mi West 11.5 mph - N/A   Scattered Clouds
9:56 AM 33.8 °F 27.0 °F 23.0 °F 65% 30.34 in 10.0 mi West 8.1 mph - N/A   Scattered Clouds
10:15 AM 33.8 °F 24.3 °F 23.0 °F 65% 30.35 in 10.0 mi West 13.8 mph 17.3 mph N/A   Scattered Clouds
10:35 AM 35.6 °F 27.5 °F 23.0 °F 60% 30.35 in 10.0 mi West 11.5 mph 17.3 mph N/A   Clear
10:56 AM 35.6 °F 26.6 °F 21.2 °F 56% 30.36 in 10.0 mi West 13.8 mph 18.4 mph N/A   Clear
11:15 AM 35.6 °F 27.1 °F 23.0 °F 60% 30.36 in 10.0 mi WSW 12.7 mph - N/A   Clear
11:35 AM 37.4 °F 31.4 °F 21.2 °F 52% 30.35 in 10.0 mi West 8.1 mph - N/A   Clear
11:56 AM 37.4 °F 31.4 °F 21.2 °F 52% 30.35 in 10.0 mi West 8.1 mph - N/A   Clear
12:15 PM 37.4 °F 30.8 °F 23.0 °F 56% 30.35 in 10.0 mi West 9.2 mph - N/A   Clear
12:35 PM 37.4 °F 30.8 °F 23.0 °F 56% 30.34 in 10.0 mi West 9.2 mph - N/A   Clear
12:56 PM 39.2 °F 32.5 °F 21.2 °F 49% 30.33 in 10.0 mi West 10.4 mph - N/A   Clear
1:15 PM 41.0 °F 36.4 °F 21.2 °F 45% 30.34 in 10.0 mi WNW 6.9 mph - N/A   Clear
1:35 PM 39.2 °F 33.6 °F 23.0 °F 52% 30.33 in 10.0 mi WSW 8.1 mph - N/A   Clear
1:56 PM 41.0 °F 35.2 °F 23.0 °F 49% 30.33 in 10.0 mi West 9.2 mph - N/A   Clear
2:15 PM 41.0 °F 35.8 °F 21.2 °F 45% 30.32 in 10.0 mi WSW 8.1 mph - N/A   Clear
2:36 PM 41.0 °F 38.0 °F 21.2 °F 45% 30.32 in 10.0 mi West 4.6 mph - N/A   Clear
2:55 PM 41.0 °F 34.7 °F 21.2 °F 45% 30.32 in 10.0 mi West 10.4 mph - N/A   Clear
3:15 PM 41.0 °F 35.2 °F 19.4 °F 42% 30.32 in 10.0 mi West 9.2 mph - N/A   Clear
3:36 PM 41.0 °F 37.1 °F 21.2 °F 45% 30.32 in 10.0 mi WNW 5.8 mph - N/A   Clear
3:55 PM 41.0 °F 36.4 °F 21.2 °F 45% 30.32 in 10.0 mi WSW 6.9 mph - N/A   Clear
4:15 PM 41.0 °F 37.1 °F 19.4 °F 42% 30.33 in 10.0 mi West 5.8 mph - N/A   Clear
4:36 PM 41.0 °F 38.0 °F 19.4 °F 42% 30.33 in 10.0 mi West 4.6 mph - N/A   Clear
4:55 PM 41.0 °F 38.0 °F 21.2 °F 45% 30.33 in 10.0 mi WSW 4.6 mph - N/A   Clear
5:15 PM 37.4 °F 33.8 °F 21.2 °F 52% 30.34 in 10.0 mi West 4.6 mph - N/A   Clear
5:36 PM 37.4 °F 34.9 °F 21.2 °F 52% 30.35 in 10.0 mi WSW 3.5 mph - N/A   Clear
5:55 PM 37.4 °F 34.9 °F 21.2 °F 52% 30.35 in 10.0 mi SW 3.5 mph - N/A   Clear
6:15 PM 37.4 °F - 21.2 °F 52% 30.35 in 10.0 mi Calm Calm - N/A   Clear
6:36 PM 35.6 °F - 21.2 °F 56% 30.35 in 10.0 mi Calm Calm - N/A   Clear
6:55 PM 35.6 °F - 21.2 °F 56% 30.35 in 10.0 mi Calm Calm - N/A   Clear
7:15 PM 35.6 °F 32.8 °F 21.2 °F 56% 30.34 in 10.0 mi South 3.5 mph - N/A   Clear
7:36 PM 35.6 °F - 21.2 °F 56% 30.33 in 10.0 mi Calm Calm - N/A   Scattered Clouds
7:55 PM 33.8 °F - 21.2 °F 60% 30.35 in 10.0 mi Calm Calm - N/A   Mostly Cloudy
8:15 PM 33.8 °F 30.8 °F 21.2 °F 60% 30.34 in 10.0 mi South 3.5 mph - N/A   Mostly Cloudy
8:36 PM 33.8 °F - 21.2 °F 60% 30.35 in 10.0 mi Calm Calm - N/A   Scattered Clouds
8:55 PM 33.8 °F 30.8 °F 21.2 °F 60% 30.35 in 10.0 mi SSW 3.5 mph - N/A   Clear
9:15 PM 33.8 °F 29.6 °F 23.0 °F 65% 30.34 in 10.0 mi SSW 4.6 mph - N/A   Scattered Clouds
9:36 PM 33.8 °F 30.8 °F 23.0 °F 65% 30.35 in 10.0 mi SW 3.5 mph - N/A   Scattered Clouds
9:55 PM 33.8 °F 30.8 °F 23.0 °F 65% 30.33 in 10.0 mi SW 3.5 mph - N/A   Scattered Clouds
10:15 PM 33.8 °F 30.8 °F 23.0 °F 65% 30.33 in 10.0 mi South 3.5 mph - N/A   Mostly Cloudy
10:36 PM 33.8 °F 30.8 °F 23.0 °F 65% 30.34 in 10.0 mi SSW 3.5 mph - N/A   Overcast
10:55 PM 35.6 °F 32.8 °F 24.8 °F 65% 30.35 in 10.0 mi SW 3.5 mph - N/A   Overcast
11:15 PM 35.6 °F 30.7 °F 24.8 °F 65% 30.35 in 10.0 mi SSW 5.8 mph - N/A   Overcast
11:36 PM 35.6 °F 30.7 °F 24.8 °F 65% 30.35 in 10.0 mi SW 5.8 mph - N/A   Mostly Cloudy
11:55 PM 35.6 °F 29.9 °F 24.8 °F 65% 30.34 in 10.0 mi SW 6.9 mph - N/A   Overcast